GW6590 Weather Reports


time (UTC)temp
C
wind
direction
speed
KPH
gust
KPH
rain 1hr
cm
rain 24hr
cm
rain mn
cm
humidity
%
barometer
mb
20260507031703 12 147 3.2 6.4 0.18 1.12 1.12 96 1024.7
20260507031159 12 255 3.2 3.2 0.36 1.12 1.12 96 1025.2
20260507030656 12 98 0.0 0.0 0.48 1.09 1.09 96 1024.8
20260507030154 12 252 1.6 1.6 1.07 1.09 1.09 96 1024.9
20260507025651 12 162 0.0 0.0 1.07 1.04 1.04 96 1024.7
20260507025148 12 354 0.0 0.0 0.30 0.89 0.89 96 1024.6
20260507024646 12 331 0.0 0.0 0.13 0.86 0.86 96 1024.7
20260507024143 12 217 0.0 0.0 0.00 0.84 0.84 96 1024.1
20260507023638 12 160 0.0 0.0 0.00 0.84 0.84 96 1024.2
20260507023136 13 263 1.6 3.2 0.00 0.84 0.84 96 1024.2
20260507022633 13 244 6.4 9.7 0.18 0.84 0.84 96 1024.3
20260507022128 14 263 3.2 4.8 0.48 0.84 0.84 96 1024.2
20260507021625 14 265 8.0 11.3 0.30 0.81 0.81 96 1024.2
20260507021120 14 254 1.6 1.6 0.00 0.76 0.76 96 1024.1
20260507020619 14 166 1.6 1.6 0.00 0.76 0.76 96 1023.6
20260507020114 14 307 1.6 3.2 0.00 0.76 0.76 96 1023.6
20260507015613 14 304 3.2 6.4 0.00 0.76 0.76 96 1023.9
20260507015110 14 241 1.6 3.2 0.00 0.76 0.76 96 1023.4
20260507014607 14 173 1.6 1.6 0.00 0.76 0.76 96 1023.6
20260507014102 14 300 1.6 3.2 0.00 0.76 0.76 96 1023.4
20260507013559 14 103 1.6 1.6 0.00 0.76 0.76 96 1023.7
20260507013057 14 158 0.0 0.0 0.00 0.76 0.76 96 1023.5
20260507012554 14 81 0.0 1.6 0.00 0.76 0.76 96 1023.7
20260507012049 14 305 0.0 1.6 0.00 0.76 0.76 96 1023.6
20260507011548 14 237 1.6 1.6 0.00 0.76 0.76 96 1023.7
20260507011043 14 17 0.0 1.6 0.00 0.76 0.76 96 1023.6
20260507010538 14 323 3.2 3.2 0.00 0.76 0.76 96 1023.5
20260507010035 14 171 0.0 1.6 0.00 0.76 0.76 96 1023.6
20260507005532 14 23 0.0 0.0 0.00 0.76 0.76 96 1023.5
20260507005028 14 311 1.6 3.2 0.00 0.76 0.76 96 1023.4
20260507004526 14 170 0.0 0.0 0.00 0.76 0.76 96 1023.2
20260507004023 14 274 3.2 4.8 0.00 0.76 0.76 96 1023.4
20260507003518 14 244 0.0 1.6 0.00 0.76 0.76 96 1023.2
20260507003014 14 81 0.0 1.6 0.00 0.76 0.76 96 1023.5
20260507002510 14 296 1.6 1.6 0.00 0.76 0.76 96 1023.5
20260507002007 14 254 3.2 4.8 0.00 0.76 0.76 96 1023.5
20260507001503 14 252 4.8 9.7 0.00 0.76 0.76 96 1023.5
20260507001001 14 153 3.2 3.2 0.00 0.76 0.76 96 1023.7
20260507000456 14 302 6.4 9.7 0.00 0.76 0.76 96 1023.7
20260506235952 14 343 0.0 0.0 0.00 0.76 0.76 96 1023.7
20260506235450 14 179 6.4 12.9 0.00 0.76 0.76 96 1023.6
20260506234945 14 108 0.0 1.6 0.00 0.76 0.76 96 1023.5
20260506234443 14 268 1.6 3.2 0.00 0.76 0.76 96 1023.3
20260506233940 14 108 1.6 1.6 0.00 0.76 0.76 96 1023.2
20260506233437 14 238 1.6 3.2 0.00 0.76 0.76 96 1023.2
20260506232933 14 228 3.2 3.2 0.00 0.76 0.76 96 1023.2
20260506232430 14 269 3.2 6.4 0.00 0.76 0.76 95 1023.0
20260506231925 14 103 3.2 4.8 0.00 0.76 0.76 95 1023.2
20260506231423 14 218 0.0 1.6 0.00 0.76 0.76 95 1022.9
20260506230920 14 92 1.6 3.2 0.00 0.76 0.76 95 1022.9
20260506230417 14 312 3.2 3.2 0.00 0.76 0.76 95 1023.0
20260506225913 14 133 3.2 4.8 0.00 0.76 0.76 95 1022.9
20260506225411 14 260 0.0 0.0 0.00 0.76 0.76 95 1022.9
20260506224907 14 123 3.2 4.8 0.00 0.76 0.76 95 1022.9
20260506224405 14 327 4.8 4.8 0.00 0.76 0.76 95 1023.0
20260506223901 14 192 1.6 1.6 0.18 0.76 0.76 95 1022.9
20260506223356 14 143 0.0 0.0 0.18 0.76 0.76 95 1022.8
20260506222854 14 301 4.8 4.8 0.13 0.74 0.74 95 1022.9
20260506222349 14 344 3.2 4.8 0.13 0.74 0.74 95 1022.9
20260506221847 15 164 1.6 4.8 0.18 0.71 0.71 95 1022.9
20260506221344 15 137 1.6 3.2 0.30 0.71 0.71 95 1022.9
20260506220842 15 230 0.0 0.0 0.48 0.71 0.71 95 1022.8
20260506220337 15 270 3.2 11.3 0.61 0.69 0.69 95 1023.0
20260506215834 15 138 1.6 1.6 0.30 0.64 0.64 95 1023.0
20260506215330 15 317 0.0 0.0 0.00 0.58 0.58 95 1022.8
20260506214826 15 239 3.2 3.2 0.00 0.58 0.58 95 1022.8
20260506214323 15 218 3.2 3.2 0.00 0.58 0.58 95 1022.8
20260506213821 15 84 0.0 0.0 0.00 0.58 0.58 95 1022.7
20260506213318 15 243 1.6 1.6 0.00 0.58 0.58 95 1022.9
20260506212816 15 244 1.6 3.2 0.00 0.58 0.58 95 1022.9
20260506212311 15 286 3.2 9.7 0.00 0.58 0.58 95 1023.2
20260506211806 15 90 0.0 0.0 0.00 0.58 0.58 95 1023.3
20260506211303 15 128 1.6 1.6 0.13 0.58 0.58 95 1023.2
20260506210800 15 84 8.0 11.3 0.13 0.58 0.58 95 1023.3
20260506210257 15 74 0.0 0.0 0.00 0.56 0.56 94 1023.2
20260506205754 15 272 1.6 1.6 0.18 0.56 0.56 94 1023.5
20260506205249 15 235 1.6 3.2 0.18 0.56 0.56 94 1023.2
20260506204746 15 124 0.0 1.6 0.13 0.53 0.53 94 1023.4
20260506204244 15 252 1.6 3.2 0.30 0.53 0.53 94 1023.7
20260506203742 15 119 1.6 3.2 0.36 0.51 0.51 93 1023.5
20260506203239 15 183 1.6 1.6 0.18 0.48 0.48 94 1023.5
20260506202736 15 258 1.6 1.6 0.00 0.46 0.46 93 1023.7
20260506202232 15 212 3.2 3.2 0.00 0.46 0.46 93 1023.6
20260506201729 15 261 1.6 1.6 0.13 0.46 0.46 93 1023.5
20260506201226 15 217 1.6 3.2 0.13 0.46 0.46 93 1023.4
20260506200723 15 248 3.2 4.8 0.00 0.43 0.43 93 1023.5
20260506200220 15 180 1.6 3.2 0.00 0.43 0.43 93 1023.5
20260506195716 15 101 3.2 4.8 0.00 0.43 0.43 93 1023.6
20260506195213 15 155 0.0 3.2 0.00 0.43 0.43 93 1023.6
20260506194710 15 200 8.0 9.7 0.00 0.43 0.43 93 1023.7
20260506194206 15 93 4.8 9.7 0.18 0.43 0.43 93 1023.6
20260506193704 15 35 1.6 3.2 0.18 0.43 0.43 92 1024.0
20260506193201 15 74 0.0 1.6 0.00 0.41 0.41 93 1024.0
20260506192657 15 258 3.2 6.4 0.00 0.41 0.41 92 1023.8
20260506192154 15 40 3.2 3.2 0.00 0.41 0.41 92 1024.0
20260506191651 15 96 4.8 6.4 0.00 0.41 0.41 92 1024.2
20260506191147 15 345 1.6 4.8 0.00 0.41 0.41 92 1024.0
20260506190644 15 96 3.2 3.2 0.13 0.41 0.41 92 1024.0
20260506190141 15 189 0.0 0.0 0.30 0.41 0.41 93 1024.0
20260506185638 15 81 3.2 6.4 0.18 0.38 0.38 92 1024.1
20260506185134 15 242 0.0 1.6 0.30 0.38 0.38 92 1024.6
20260506184632 15 41 3.2 4.8 0.13 0.36 0.36 92 1024.6
20260506184129 15 160 4.8 6.4 0.18 0.33 0.33 92 1024.4
20260506183626 15 327 1.6 3.2 0.18 0.33 0.33 92 1024.3
20260506183121 15 173 0.0 0.0 0.00 0.30 0.30 92 1024.2
20260506182619 15 131 8.0 12.9 0.00 0.30 0.30 91 1024.0
20260506182116 15 105 3.2 4.8 0.13 0.30 0.30 91 1024.1
20260506181614 15 156 3.2 4.8 0.13 0.30 0.30 91 1024.0
20260506181111 15 145 8.0 11.3 0.30 0.28 0.28 91 1024.1
20260506180608 15 164 1.6 1.6 0.30 0.28 0.28 91 1024.1
20260506180104 -17 0.0 0.0 0.00 0.00 0.00 1024.4
20260506175600 15 99 1.6 1.6 0.18 0.23 0.23 90 1024.4
20260506175056 15 99 1.6 1.6 0.48 0.23 0.23 90 1024.8
20260506174556 15 117 0.0 1.6 0.30 0.20 0.20 89 1024.9
20260506174051 -17 0.0 0.0 0.00 0.00 0.00 1025.0
20260506173549 16 97 0.0 1.6 0.48 0.15 0.15 87 1025.3
20260506173046 16 97 0.0 1.6 0.48 0.15 0.15 87 1025.2
20260506172543 16 282 4.8 6.4 0.61 0.13 0.13 86 1025.3
20260506172039 16 245 1.6 1.6 0.43 0.08 0.08 85 1025.3
20260506171537 17 147 1.6 3.2 0.13 0.03 0.03 80 1025.7
20260506171034 17 147 1.6 3.2 0.13 0.03 0.03 80 1025.6
20260506170532 17 128 3.2 4.8 0.00 0.00 0.00 78 1025.8
20260506170024 17 231 3.2 4.8 0.00 0.00 0.00 76 1025.8
20260506165522 18 94 1.6 3.2 0.00 0.00 0.00 73 1025.5
20260506165018 18 28 4.8 6.4 0.00 0.00 0.00 71 1025.7
20260506164514 18 55 1.6 3.2 0.00 0.00 0.00 69 1025.5
20260506164012 19 67 3.2 4.8 0.00 0.00 0.00 68 1025.2
20260506163508 19 322 4.8 6.4 0.00 0.00 0.00 69 1025.3
20260506163004 19 119 3.2 4.8 0.00 0.00 0.00 68 1025.3
20260506162500 18 274 9.7 16.1 0.00 0.00 0.00 68 1025.3
20260506161957 18 261 17.7 25.7 0.00 0.00 0.00 68 1025.1
20260506161455 18 158 4.8 9.7 0.00 0.00 0.00 68 1025.5
20260506160952 18 201 6.4 9.7 0.00 0.00 0.00 68 1025.6
20260506160449 19 284 6.4 6.4 0.00 0.00 0.00 67 1025.6
20260506155946 19 13 3.2 3.2 0.00 0.00 0.00 67 1025.8
20260506155444 19 261 3.2 3.2 0.00 0.00 0.00 67 1025.8
20260506153610 19 347 4.8 4.8 0.00 0.00 0.00 65 1025.6
20260506153108 19 107 3.2 4.8 0.00 0.00 0.00 66 1025.7
20260506152605 19 304 8.0 12.9 0.00 0.00 0.00 66 1025.8
20260506152103 19 70 1.6 1.6 0.00 0.00 0.00 66 1025.7
20260506151601 19 80 4.8 6.4 0.00 0.00 0.00 66 1025.9
20260506151057 20 156 3.2 4.8 0.00 0.00 0.00 66 1025.8
20260506150554 20 60 4.8 6.4 0.00 0.00 0.00 66 1025.9
20260506150051 19 216 1.6 3.2 0.00 0.00 0.00 67 1025.9
20260506145548 19 69 6.4 6.4 0.00 0.00 0.00 66 1026.1
20260506145045 19 240 1.6 1.6 0.00 0.00 0.00 67 1026.1
20260506144542 19 310 1.6 3.2 0.00 0.00 0.00 68 1026.1
20260506144039 19 298 6.4 9.7 0.00 0.00 0.00 68 1026.2
20260506143537 19 269 3.2 4.8 0.00 0.00 0.00 67 1026.3
20260506143035 19 78 1.6 3.2 0.00 0.00 0.00 68 1026.2
20260506142532 19 241 4.8 9.7 0.00 0.00 0.00 68 1026.3
20260506142031 18 218 6.4 9.7 0.00 0.00 0.00 68 1026.3
20260506141528 18 255 1.6 3.2 0.00 0.00 0.00 68 1026.2
20260506141026 18 45 1.6 3.2 0.00 0.00 0.00 70 1026.1
20260506140523 18 121 3.2 3.2 0.00 0.00 0.00 70 1026.3
20260506140020 18 187 0.0 1.6 0.00 0.00 0.00 70 1026.4
20260506135517 18 118 3.2 3.2 0.00 0.00 0.00 70 1026.1
20260506135013 18 338 1.6 3.2 0.00 0.00 0.00 71 1026.0
20260506134510 18 59 6.4 9.7 0.00 0.00 0.00 71 1025.9
20260506134006 18 238 9.7 14.5 0.00 0.00 0.00 70 1025.7
20260506133503 18 237 3.2 4.8 0.00 0.00 0.00 71 1026.0
20260506133000 18 180 4.8 6.4 0.00 0.00 0.00 71 1025.9
20260506132457 18 266 4.8 6.4 0.00 0.00 0.00 72 1026.2
20260506131954 18 231 3.2 4.8 0.00 0.00 0.00 72 1026.1
20260506131451 17 253 1.6 1.6 0.00 0.00 0.00 73 1026.1
20260506130948 17 291 6.4 11.3 0.00 0.00 0.00 74 1026.1
20260506130444 17 264 3.2 4.8 0.00 0.00 0.00 75 1026.1
20260506125942 17 80 4.8 9.7 0.00 0.00 0.00 75 1026.4
20260506125440 17 199 3.2 6.4 0.00 0.00 0.00 76 1026.4
20260506124938 17 199 1.6 1.6 0.00 0.00 0.00 75 1026.6
20260506124435 17 274 0.0 1.6 0.00 0.00 0.00 76 1026.7
20260506123933 17 81 0.0 3.2 0.00 0.00 0.00 75 1026.6
20260506123431 17 343 4.8 4.8 0.00 0.00 0.00 75 1026.7
20260506122928 17 304 6.4 9.7 0.00 0.00 0.00 75 1026.8
20260506122425 17 298 0.0 1.6 0.00 0.00 0.00 75 1026.6
20260506121923 17 176 4.8 9.7 0.00 0.00 0.00 76 1026.6
20260506121420 17 241 1.6 1.6 0.00 0.00 0.00 76 1026.5
20260506120917 17 117 4.8 4.8 0.00 0.00 0.00 76 1026.5
20260506120414 17 241 8.0 9.7 0.00 0.00 0.00 76 1026.7
20260506115911 17 306 3.2 4.8 0.00 0.00 0.00 77 1026.4
20260506115410 16 252 3.2 3.2 0.00 0.00 0.00 77 1026.6
20260506114908 16 89 6.4 9.7 0.00 0.00 0.00 78 1026.6
20260506114405 16 273 3.2 3.2 0.00 0.00 0.00 78 1026.7
20260506113904 16 108 4.8 9.7 0.00 0.00 0.00 78 1026.4
20260506113401 16 317 1.6 3.2 0.00 0.00 0.00 78 1026.3
20260506112857 16 273 4.8 6.4 0.00 0.00 0.00 78 1026.4
20260506112355 16 21 4.8 6.4 0.00 0.00 0.00 78 1026.5
20260506111852 16 282 6.4 9.7 0.00 0.00 0.00 78 1026.8
20260506111350 16 163 0.0 1.6 0.00 0.00 0.00 78 1026.8
20260506110847 16 115 8.0 11.3 0.00 0.00 0.00 79 1026.9
20260506110344 15 283 1.6 3.2 0.00 0.00 0.00 80 1026.8
20260506105841 15 226 3.2 6.4 0.00 0.00 0.00 80 1026.8
20260506105337 16 291 9.7 11.3 0.00 0.00 0.00 80 1026.7
20260506104835 16 145 3.2 3.2 0.00 0.00 0.00 80 1026.8
20260506104332 16 26 0.0 1.6 0.00 0.00 0.00 80 1026.8
20260506103830 16 310 3.2 6.4 0.00 0.00 0.00 80 1026.8
20260506103327 15 224 3.2 4.8 0.00 0.00 0.00 80 1026.4
20260506102825 15 118 0.0 0.0 0.00 0.00 0.00 80 1026.6
20260506102322 15 213 8.0 11.3 0.00 0.00 0.00 81 1026.6
20260506101820 15 89 1.6 1.6 0.00 0.00 0.00 81 1026.6
20260506101315 15 326 4.8 9.7 0.00 0.00 0.00 81 1026.7
20260506100814 15 234 3.2 3.2 0.00 0.00 0.00 81 1026.5
20260506100312 15 346 3.2 4.8 0.00 0.00 0.00 81 1026.4
20260506095810 15 106 6.4 9.7 0.00 0.00 0.00 81 1026.6
20260506095306 15 142 1.6 1.6 0.00 0.00 0.00 81 1026.6
20260506094803 15 136 1.6 1.6 0.00 0.00 0.00 80 1026.7
20260506094302 15 103 4.8 11.3 0.00 0.00 0.00 81 1026.4
20260506093759 15 92 1.6 3.2 0.00 0.00 0.00 81 1026.5
20260506093256 15 57 3.2 3.2 0.00 0.00 0.00 81 1026.4
20260506092754 15 131 3.2 6.4 0.00 0.00 0.00 81 1026.5
20260506092252 15 125 3.2 4.8 0.00 0.00 0.00 80 1026.5
20260506091749 15 145 6.4 11.3 0.00 0.00 0.00 81 1026.5
20260506091246 15 289 3.2 3.2 0.00 0.00 0.00 80 1026.4
20260506090744 15 88 1.6 3.2 0.00 0.00 0.00 80 1026.3
20260506090241 15 301 1.6 1.6 0.00 0.00 0.00 80 1026.4
20260506085737 15 114 6.4 12.9 0.00 0.00 0.00 79 1026.3
20260506085234 15 123 6.4 9.7 0.00 0.00 0.00 79 1026.4
20260506084730 15 353 3.2 3.2 0.00 0.00 0.00 79 1026.5
20260506084227 15 282 8.0 14.5 0.00 0.00 0.00 79 1026.7
20260506083724 15 126 1.6 3.2 0.00 0.00 0.00 79 1026.6
20260506083222 15 237 0.0 1.6 0.00 0.00 0.00 78 1026.5
20260506082719 15 141 0.0 1.6 0.00 0.00 0.00 78 1026.6
20260506082214 15 173 0.0 1.6 0.00 0.00 0.00 77 1026.5
20260506081712 16 110 1.6 1.6 0.00 0.00 0.00 77 1026.5
20260506081210 16 135 0.0 1.6 0.00 0.00 0.00 77 1026.6
20260506080707 16 30 3.2 6.4 0.00 0.00 0.00 77 1026.5
20260506080204 16 316 3.2 4.8 0.00 0.00 0.00 76 1026.5
20260506073148 16 276 3.2 6.4 0.00 0.00 0.00 75 1026.6
20260506072644 16 268 0.0 1.6 0.00 0.00 0.00 75 1026.5
20260506072142 16 102 3.2 3.2 0.00 0.00 0.00 75 1026.7
20260506071640 16 127 0.0 1.6 0.00 0.00 0.00 75 1026.7
20260506071137 16 320 4.8 4.8 0.00 0.00 0.00 76 1026.7
20260506070634 16 56 0.0 1.6 0.00 0.00 0.00 75 1026.6
20260506070131 16 249 3.2 3.2 0.00 0.00 0.00 75 1026.7
20260506062108 16 78 0.0 1.6 0.00 0.00 0.00 74 1026.5
20260506061604 16 70 3.2 3.2 0.00 0.00 0.00 74 1026.5
20260506061102 16 234 3.2 3.2 0.00 0.00 0.00 74 1026.5
20260506060600 16 333 3.2 3.2 0.00 0.00 0.00 74 1026.6
20260506051029 17 50 4.8 6.4 0.00 0.00 0.00 72 1026.7
20260506050526 17 11 3.2 3.2 0.00 0.00 0.00 71 1027.2
20260506045017 17 123 6.4 9.7 0.00 0.00 0.00 70 1027.1
20260506044515 17 99 6.4 9.7 0.00 0.00 0.00 70 1026.9
20260506044012 17 232 6.4 9.7 0.00 0.00 0.00 70 1027.1
20260506043509 17 270 4.8 11.3 0.00 0.00 0.00 69 1027.0
20260506043007 17 264 3.2 4.8 0.00 0.00 0.00 69 1027.1
20260506042506 17 65 3.2 4.8 0.00 0.00 0.00 68 1027.1
20260506042003 17 61 1.6 3.2 0.00 0.00 0.00 68 1026.9
20260506041502 17 42 3.2 3.2 0.00 0.00 0.00 67 1027.0
20260506040958 17 260 6.4 11.3 0.00 0.00 0.00 67 1027.1
20260506040456 17 259 3.2 3.2 0.00 0.00 0.00 67 1027.1
20260506035952 17 281 4.8 4.8 0.00 0.00 0.00 66 1027.1
20260506035449 17 88 4.8 4.8 0.00 0.00 0.00 65 1027.1
20260506034945 17 220 0.0 3.2 0.00 0.00 0.00 65 1027.1
20260506034443 17 24 4.8 9.7 0.00 0.00 0.00 65 1027.1
20260506033940 17 135 8.0 9.7 0.00 0.00 0.00 64 1027.0
20260506033438 17 33 6.4 9.7 0.00 0.00 0.00 63 1027.0
20260506032934 17 103 4.8 6.4 0.00 0.00 0.00 63 1027.2
20260506032431 17 114 4.8 9.7 0.00 0.00 0.00 63 1027.3
20260506031927 17 248 1.6 1.6 0.00 0.00 0.00 63 1027.2